Location: Byszew
(52.1813°N, 19.2693°E)
Time: 00:24:35
(UTC+00:00)

Meteor 1-13 Rocket - Pass Details

Date: 03 March 2021
Orbit: 830 x 913 km, 81.3° (Epoch: 11 April)

Event Time Altitude Azimuth Distance (km) Brightness Sun altitude
Rises 17:51:11 0° 348° (NNW) 3,561 7.7 -13.8°
Reaches altitude 10° 17:53:44 10° 353° (N) 2,614 6.9 -14.2°
Maximum altitude 17:59:38 58° 72° (ENE) 1,055 4.4 -15.1°
Drops below altitude 10° 18:05:24 10° 151° (SSE) 2,567 6.3 -15.9°
Enters shadow 18:06:03 - 153° (SSE) 2,806 6.6 -16.0°
